Wind_Speed
8 8 7 7 8 8 8 8 9 10 10 11 11 11 12 12 13 13 14 15 16 16 17 18 18 19 19 20 21 21 22 21 22 23 24 25 26 27 27 28 28 29 29
9 9 8 9 9 10 10 10 10 11 11 12 12 12 12 13 14 14 15 15 16 17 18 19 19 20 21 21 21 21 21 22 23 24 25 26 27 27 28 29 30 30 30
10 10 9 10 10 11 11 11 11 11 11 12 12 13 13 13 14 15 16 16 17 17 18 18 19 19 20 21 22 22 22 23 25 26 26 27 28 28 28 29 30 31 31
11 11 11 11 10 11 11 11 11 11 11 11 12 13 13 14 15 16 17 17 18 19 19 20 20 21 21 21 22 23 24 25 26 27 27 28 29 29 30 30 31 32 33
13 12 12 13 12 12 12 12 12 12 12 12 13 14 15 15 16 17 18 19 19 20 20 21 22 23 23 24 24 24 25 27 28 28 28 29 30 30 30 31 32 33 33
14 14 13 14 14 13 13 13 13 13 13 13 14 15 16 17 18 18 19 20 21 22 22 23 24 25 25 26 26 26 27 28 28 28 29 30 30 30 31 31 32 33 33
16 16 16 15 15 15 15 15 14 14 14 15 15 17 17 18 19 21 22 22 23 24 24 24 24 25 26 27 27 27 28 29 29 29 29 30 31 31 31 32 33 34 34
18 18 17 17 17 17 17 17 16 16 16 17 18 19 19 20 21 22 23 23 23 24 24 25 25 26 26 26 27 28 29 29 30 30 31 31 32 32 33 33 34 35 35
20 19 19 19 19 19 18 19 19 19 19 19 20 21 21 21 21 22 23 23 24 25 25 25 26 26 26 26 27 28 30 30 30 31 32 33 33 33 33 34 34 35 34
21 21 20 20 20 20 21 20 21 21 21 21 22 22 22 22 22 23 24 25 25 25 26 26 27 28 28 28 29 30 31 31 31 32 32 32 33 33 33 34 34 34 35
22 21 21 22 22 22 22 21 21 22 22 23 23 24 24 24 24 24 25 26 26 26 26 27 28 29 29 30 31 31 31 31 32 33 33 33 33 33 33 33 34 35 35
23 23 22 22 23 23 23 23 22 22 22 23 24 25 25 25 25 26 26 27 27 27 27 27 28 29 29 30 31 31 31 32 32 33 33 33 33 33 33 33 34 35 35
25 24 24 24 24 24 24 24 23 23 23 24 25 25 25 26 26 27 27 28 28 28 28 28 30 31 32 32 32 32 32 32 33 33 32 32 32 32 32 32 33 34 35
26 26 26 26 25 25 25 25 25 24 24 25 26 26 27 27 27 28 28 28 28 29 29 30 32 32 33 33 32 32 33 33 33 32 32 32 32 32 32 33 34 34 34
27 27 26 26 25 25 25 26 26 25 25 26 26 27 28 29 30 30 30 30 30 31 31 32 33 33 34 34 34 34 34 34 33 33 32 32 32 33 33 34 34 34 34
29 29 28 26 26 27 27 27 27 27 27 28 28 29 30 31 32 32 32 32 33 33 33 33 33 34 34 34 34 34 34 33 33 33 33 32 32 33 33 34 34 34 34
30 30 28 28 28 28 29 28 28 28 28 29 30 31 31 32 32 33 33 33 33 33 33 33 34 34 34 34 34 34 34 34 34 33 33 33 33 33 33 33 33 32 32
31 30 30 29 29 29 29 29 30 30 30 30 31 31 32 32 33 34 34 33 33 33 34 34 34 34 35 35 35 35 35 34 34 33 33 33 33 32 32 32 31 31 31
32 31 31 30 30 30 30 30 30 30 31 31 31 31 32 32 33 33 32 32 33 33 33 33 34 34 34 34 34 34 34 34 33 33 32 32 32 31 31 31 31 31 31
31 31 31 31 30 30 31 31 31 31 31 31 32 32 32 32 31 31 31 31 32 32 33 33 34 34 34 34 34 34 33 32 32 32 32 31 31 31 31 31 31 31 31
31 31 31 31 31 31 31 31 30 30 30 30 31 31 31 31 30 30 31 31 32 32 32 33 33 33 33 33 33 33 32 32 31 32 32 31 31 31 30 31 30 31 30
31 31 31 31 31 31 30 30 30 30 30 30 30 29 29 29 30 31 31 31 31 31 31 32 32 32 32 32 32 32 32 31 31 31 31 31 31 30 30 30 30 30 30
31 31 30 30 30 29 29 29 29 29 29 29 30 30 30 30 30 30 30 30 30 30 30 31 31 31 31 31 30 30 30 30 30 30 30 30 31 30 30 30 30 29 29
30 30 29 29 29 28 28 28 29 29 30 30 30 30 30 30 29 30 30 30 30 30 30 31 31 31 31 30 30 30 30 30 30 30 30 30 31 30 30 29 29 29 29
29 29 28 28 28 28 28 29 29 30 30 29 29 29 29 29 29 30 30 31 30 31 31 31 31 31 31 30 30 29 29 29 30 31 30 30 29 29 28 28 28 29 30
28 28 27 27 27 28 28 29 29 29 29 29 29 28 28 29 29 30 30 31 31 31 31 31 31 31 30 29 29 29 29 29 29 30 30 30 29 29 29 29 30 30 31
Wind_Direction
320 314 313 313 312 310 304 294 285 276 272 271 271 269 267 270 272 272 272 272 275 277 279 279 280 280 282 283 284 282 283 284 284 285 286 287 287 288 289 290 290 290 288
320 313 308 308 309 307 298 294 289 282 276 275 273 272 272 274 273 274 276 279 280 280 282 283 283 283 284 284 285 286 285 285 286 287 288 288 288 290 291 290 291 290 289
316 311 305 305 305 305 301 296 290 284 279 277 273 275 277 277 277 276 278 280 283 284 285 286 287 287 288 287 287 287 287 287 288 288 289 290 290 290 291 291 292 291 291
310 308 306 305 304 305 304 300 296 288 281 278 279 278 280 279 277 278 280 282 285 286 287 288 288 288 288 288 289 288 287 287 288 289 289 290 290 290 290 291 291 291 291
308 304 301 301 300 298 300 299 295 291 285 282 283 283 283 282 281 281 282 285 287 288 289 290 290 288 287 287 288 288 288 288 288 289 289 289 290 291 292 292 292 292 292
304 301 299 298 296 296 296 298 295 292 291 287 287 288 287 286 284 284 286 287 288 288 289 290 290 289 287 287 287 288 288 289 288 289 290 291 291 292 293 293 293 293 293
305 298 294 292 291 292 292 294 295 293 291 291 291 290 288 288 287 287 289 289 290 291 291 292 293 291 290 289 289 288 289 290 290 291 292 292 292 293 294 294 295 294 294
302 299 295 291 291 290 289 288 289 290 290 291 293 293 292 289 289 289 290 291 291 291 292 293 293 293 293 292 291 291 292 291 292 292 293 293 293 294 294 295 295 294 294
300 296 298 293 291 290 291 287 286 286 287 288 291 292 292 292 293 292 293 293 292 292 293 294 296 296 295 295 295 295 294 293 292 293 294 293 293 294 294 295 295 295 295
302 299 297 295 294 292 291 288 284 285 286 287 289 291 291 292 294 294 294 294 293 294 294 295 296 297 295 295 296 296 296 295 293 294 295 294 295 295 294 295 295 295 296
300 299 298 295 296 295 295 289 285 286 287 287 289 291 291 291 293 293 294 294 293 293 293 295 296 296 295 295 295 296 295 295 295 295 296 295 296 296 296 295 295 296 297
297 297 297 297 295 294 294 293 287 287 290 290 290 292 293 292 292 293 294 295 294 292 293 293 295 295 295 295 296 297 296 295 296 297 297 297 297 296 295 295 297 298 298
295 295 294 295 293 292 292 290 289 288 288 289 290 292 294 293 293 293 293 294 292 293 294 296 297 296 296 296 297 296 297 297 297 297 297 297 297 297 297 297 297 298 299
294 294 294 293 292 292 293 291 289 289 290 291 291 293 294 294 294 294 292 292 292 292 293 294 295 296 296 296 297 297 298 299 299 298 299 299 299 298 298 298 299 299 299
292 293 292 292 292 292 293 293 292 292 292 292 292 292 293 294 293 294 293 293 292 292 293 293 294 295 296 297 297 298 298 298 298 299 299 298 298 298 298 298 298 299 299
290 291 291 291 291 292 293 293 292 291 292 292 292 293 293 293 293 293 292 292 292 292 293 294 294 295 295 295 296 298 298 298 298 298 298 297 297 297 297 298 298 298 298
289 289 289 289 290 291 292 293 292 292 291 291 292 292 292 293 293 293 292 292 291 291 292 294 294 295 296 296 297 298 298 298 299 299 299 298 298 297 297 298 299 299 299
288 289 288 289 290 290 291 291 291 291 291 291 292 292 292 292 292 292 292 291 291 292 293 294 295 296 296 297 298 298 298 298 298 298 297 297 297 298 298 298 299 300 300
288 288 290 290 289 289 289 289 290 291 291 291 291 292 292 292 292 292 292 291 290 291 293 294 296 297 297 297 298 299 298 298 298 297 297 296 296 297 297 297 298 299 299
288 288 290 290 289 289 289 290 291 291 291 292 292 291 293 292 292 293 292 291 292 292 293 294 296 297 297 297 299 300 300 299 298 298 297 296 296 296 296 296 297 297 297
288 288 289 289 289 289 289 290 290 291 291 292 293 292 292 292 292 292 293 292 291 292 294 296 297 298 298 299 300 300 300 299 298 297 297 297 296 295 296 297 297 297 297
288 288 288 288 288 289 289 288 289 290 291 292 293 294 294 294 293 294 294 294 294 295 296 297 298 299 299 299 300 300 299 299 299 299 300 299 297 296 296 297 297 297 297
287 287 287 287 287 288 288 289 289 290 291 292 293 294 295 296 296 295 295 295 296 296 297 299 299 299 299 300 300 300 300 299 299 299 299 299 298 297 297 297 297 297 296
286 286 286 286 286 287 288 288 288 289 291 292 292 294 296 296 296 295 295 295 296 296 298 300 300 299 300 299 299 299 298 299 299 300 300 299 298 297 297 297 297 297 297
284 285 285 285 286 288 289 289 289 291 291 292 292 294 296 296 297 297 297 298 298 297 298 299 299 299 300 299 299 298 298 298 299 299 301 301 301 300 299 299 298 298 298
284 285 286 285 286 287 289 289 290 291 292 293 294 296 296 297 298 298 298 298 299 299 299 300 300 300 299 299 299 299 299 300 301 301 301 301 300 299 299 299 299 299 299
Height
5894 5893 5892 5891 5890 5889 5887 5887 5886 5885 5885 5884 5884 5883 5883 5882 5882 5882 5882 5881 5881 5880 5879 5878 5877 5877 5875 5874 5873 5872 5871 5869 5868 5866 5864 5862 5860 5858 5856 5854 5852 5850 5848
5892 5891 5890 5889 5888 5887 5886 5885 5884 5883 5882 5881 5881 5880 5880 5879 5879 5878 5878 5877 5877 5876 5875 5874 5873 5872 5870 5869 5868 5866 5865 5863 5862 5860 5858 5856 5854 5852 5850 5848 5845 5843 5841
5891 5890 5889 5888 5887 5885 5884 5882 5881 5880 5879 5878 5878 5877 5877 5876 5876 5875 5874 5874 5873 5872 5870 5869 5868 5866 5865 5863 5862 5860 5859 5857 5856 5854 5852 5849 5847 5845 5843 5841 5838 5835 5833
5890 5889 5887 5886 5885 5883 5882 5880 5878 5877 5876 5875 5875 5874 5873 5873 5872 5871 5870 5869 5868 5867 5866 5864 5863 5861 5859 5858 5856 5854 5853 5851 5849 5847 5845 5843 5841 5838 5836 5833 5831 5828 5825
5888 5886 5885 5884 5882 5881 5879 5877 5876 5874 5873 5872 5872 5871 5870 5869 5868 5867 5866 5865 5863 5862 5860 5859 5857 5855 5853 5852 5850 5848 5846 5844 5842 5840 5838 5835 5833 5831 5828 5825 5823 5820 5817
5885 5884 5882 5881 5880 5878 5876 5875 5873 5871 5870 5869 5868 5867 5866 5865 5864 5862 5861 5860 5858 5857 5855 5853 5851 5849 5847 5845 5843 5841 5839 5837 5835 5833 5830 5828 5825 5823 5820 5817 5814 5812 5809
5882 5880 5879 5877 5876 5875 5873 5871 5870 5868 5867 5866 5864 5863 5862 5860 5859 5858 5856 5855 5853 5851 5848 5847 5845 5842 5840 5838 5836 5834 5832 5829 5827 5825 5823 5820 5818 5815 5812 5809 5806 5803 5800
5879 5877 5875 5873 5872 5870 5869 5867 5866 5865 5863 5862 5860 5859 5857 5855 5854 5852 5851 5849 5847 5845 5843 5841 5838 5836 5833 5831 5829 5827 5824 5822 5819 5817 5815 5812 5809 5806 5803 5800 5797 5794 5790
5875 5872 5871 5869 5868 5866 5864 5862 5861 5860 5859 5857 5855 5854 5852 5850 5848 5847 5845 5843 5841 5839 5836 5834 5832 5829 5827 5824 5822 5819 5817 5814 5811 5809 5806 5803 5800 5797 5794 5791 5788 5784 5781
5870 5868 5866 5865 5863 5861 5859 5857 5856 5855 5853 5852 5850 5848 5846 5845 5843 5841 5839 5836 5834 5832 5830 5827 5825 5822 5819 5817 5814 5811 5809 5806 5803 5801 5798 5795 5791 5788 5785 5782 5779 5776 5772
5865 5863 5862 5860 5858 5856 5854 5852 5850 5849 5847 5846 5844 5842 5840 5838 5836 5834 5832 5830 5827 5825 5822 5820 5817 5815 5812 5810 5807 5804 5801 5798 5795 5792 5789 5786 5783 5779 5776 5772 5769 5766 5763
5860 5858 5856 5854 5852 5850 5848 5846 5845 5843 5841 5839 5838 5836 5834 5831 5829 5827 5825 5823 5820 5818 5816 5813 5810 5808 5805 5802 5799 5796 5793 5790 5787 5783 5780 5777 5774 5770 5767 5763 5760 5757 5754
5855 5853 5850 5848 5846 5845 5842 5840 5838 5836 5835 5833 5831 5829 5827 5825 5822 5820 5818 5815 5813 5811 5808 5806 5803 5800 5797 5794 5791 5788 5785 5781 5778 5774 5771 5768 5765 5761 5758 5755 5751 5748 5744
5848 5846 5844 5842 5840 5838 5836 5834 5832 5829 5828 5826 5824 5822 5820 5818 5815 5813 5811 5808 5806 5803 5800 5798 5795 5792 5789 5786 5782 5779 5776 5772 5769 5766 5762 5759 5756 5752 5749 5746 5743 5739 5735
5841 5839 5837 5835 5833 5831 5829 5827 5825 5823 5821 5819 5817 5815 5813 5810 5808 5806 5803 5800 5798 5795 5792 5789 5786 5783 5780 5777 5774 5770 5767 5763 5760 5757 5753 5750 5747 5743 5740 5737 5733 5730 5726
5834 5832 5830 5828 5825 5823 5821 5820 5817 5815 5813 5811 5809 5807 5804 5802 5800 5797 5795 5792 5789 5786 5783 5780 5777 5774 5771 5768 5765 5761 5758 5754 5751 5748 5744 5741 5738 5734 5731 5727 5724 5720 5717
5827 5824 5822 5820 5818 5816 5814 5812 5810 5808 5805 5803 5801 5798 5796 5793 5790 5788 5785 5783 5780 5777 5774 5771 5768 5765 5762 5758 5755 5751 5748 5745 5741 5738 5735 5731 5728 5725 5721 5718 5714 5711 5707
5819 5817 5815 5812 5810 5808 5806 5804 5802 5799 5797 5795 5792 5790 5787 5784 5781 5778 5775 5773 5771 5768 5765 5762 5759 5756 5752 5749 5745 5742 5739 5735 5732 5728 5725 5722 5718 5715 5711 5708 5705 5702 5698
5810 5808 5806 5804 5802 5799 5797 5795 5793 5791 5788 5786 5784 5781 5778 5775 5772 5769 5766 5764 5761 5758 5755 5752 5749 5746 5743 5739 5736 5732 5729 5725 5722 5719 5715 5712 5709 5705 5702 5699 5696 5693 5690
5801 5799 5797 5795 5793 5791 5789 5787 5784 5782 5779 5777 5774 5772 5769 5766 5763 5760 5757 5755 5752 5749 5746 5743 5740 5737 5733 5730 5726 5723 5719 5716 5713 5709 5706 5703 5699 5696 5693 5690 5687 5684 5681
5793 5790 5788 5786 5784 5782 5780 5778 5775 5773 5770 5768 5765 5763 5760 5757 5754 5751 5749 5746 5743 5740 5737 5734 5730 5727 5724 5720 5717 5713 5710 5706 5703 5700 5697 5693 5690 5687 5684 5681 5678 5675 5672
5783 5781 5779 5777 5775 5773 5771 5769 5766 5764 5761 5759 5756 5754 5751 5748 5745 5742 5739 5737 5734 5731 5728 5724 5721 5718 5714 5711 5707 5704 5700 5697 5694 5691 5687 5684 5681 5678 5675 5673 5670 5666 5663
5774 5772 5770 5768 5766 5764 5762 5760 5757 5755 5753 5750 5747 5745 5742 5739 5737 5734 5731 5728 5725 5722 5719 5715 5712 5708 5705 5701 5698 5695 5691 5688 5685 5682 5678 5675 5672 5669 5666 5664 5661 5657 5654
5765 5763 5761 5759 5757 5755 5753 5751 5749 5746 5744 5741 5739 5736 5734 5731 5728 5725 5722 5719 5716 5713 5709 5706 5703 5699 5696 5692 5689 5686 5683 5679 5676 5673 5670 5666 5663 5660 5657 5654 5651 5648 5646
5756 5754 5753 5751 5749 5747 5745 5742 5740 5738 5735 5733 5730 5728 5725 5722 5719 5716 5713 5710 5707 5704 5700 5697 5694 5690 5687 5684 5680 5677 5674 5670 5667 5664 5661 5658 5654 5651 5648 5645 5642 5640 5637
5747 5746 5744 5742 5740 5738 5736 5734 5732 5729 5727 5724 5722 5719 5716 5714 5711 5708 5705 5702 5698 5695 5691 5688 5685 5682 5678 5675 5672 5669 5666 5662 5659 5656 5652 5649 5646 5643 5639 5636 5633 5630 5627